Massena, NY

7:35 AM EST on December 08, 2016 (GMT -0500)
Massena International-Richards

Weather History for KMSS - January, 2013

Change the Weather History Date:

Sunday, January 13, 2013

  Actual Average Record
Temperature  
Mean Temperature 45 °F 14 °F  
Max Temperature 54 °F 24 °F 62 °F (2005)
Min Temperature 35 °F 5 °F -37 °F (1971)
Degree Days  
Heating Degree Days 20 51  
Month to date heating degree days 561 650  
Since 1 July heating degree days 3347 3749  
Cooling Degree Days 0 0  
Month to date cooling degree days 0  
Year to date cooling degree days 0  
Moisture  
Dew Point 39 °F    
Average Humidity 92    
Maximum Humidity 100    
Minimum Humidity 83    
Precipitation  
Precipitation 0.21 in 0.07 in 0.59 in (2012)
Month to date precipitation 0.45 0.98  
Year to date precipitation 0.45 0.98  
Sea Level Pressure  
Sea Level Pressure 29.88 in    
Wind  
Wind Speed 5 mph (ENE)    
Max Wind Speed 16 mph    
Max Gust Speed 21 mph    
Visibility 3 miles    
Events Fog , Rain    
T = Trace of Precipitation, MM = Missing Value Source: NWS Daily Summary

Daily Weather History Graph

Daily Weather History Graph

Search for Another Location

Airport or City:

Trip Planner

Search our weather history database for the weather conditions in past years. The results will help you decide how hot, cold, wet, or windy it might be!

Date:

Astronomy

Jan. 13, 2013 Rise Set
Actual Time 7:34 AM EST 4:42 PM EST
Civil Twilight 7:01 AM EST 5:14 PM EST
Nautical Twilight 6:25 AM EST 5:51 PM EST
Astronomical Twilight 5:50 AM EST 6:26 PM EST
Moon 8:24 AM EST (1/13) 7:26 PM EST (1/13)
Length of Visible Light 10h 13m
Length of Day
9h 07m
Waxing Crescent, 5% of the Moon is Illuminated
Jan 13
Waxing Crescent
Jan 18
First Quarter
Jan 26
Full
Feb 3
Last Quarter
Feb 10
New

Hourly Weather History & Observations

Time (EST) Temp. Windchill Dew Point Humidity Pressure Visibility Wind Dir Wind Speed Gust Speed Precip Events Conditions
12:53 AM 45.0 °F 41.2 °F 41.0 °F 86% 30.03 in 10.0 mi SW 6.9 mph - N/A   Clear
1:53 AM 44.1 °F - 42.1 °F 93% 30.04 in 10.0 mi Calm Calm - N/A   Clear
2:53 AM 37.0 °F - 36.0 °F 96% 30.04 in 5.0 mi Calm Calm - N/A   Clear
3:45 AM 35.6 °F 30.7 °F 35.6 °F 100% 30.01 in 1.8 mi NE 5.8 mph - N/A   Partly Cloudy
3:48 AM 35.6 °F 29.9 °F 33.8 °F 93% 30.01 in 0.8 mi NE 6.9 mph - N/A   Partly Cloudy
3:53 AM 37.9 °F 31.5 °F 36.0 °F 93% 30.02 in 0.8 mi NE 9.2 mph - N/A   Partly Cloudy
4:11 AM 37.4 °F 34.9 °F 37.4 °F 100% 30.01 in 1.5 mi Variable 3.5 mph - N/A   Clear
4:17 AM 37.4 °F 34.9 °F 37.4 °F 100% 30.01 in 3.0 mi ESE 3.5 mph - N/A   Clear
4:53 AM 37.0 °F 32.4 °F 36.0 °F 96% 29.99 in 2.5 mi NE 5.8 mph - N/A   Clear
5:09 AM 37.4 °F - 35.6 °F 93% 29.98 in 3.0 mi Calm Calm - N/A   Clear
5:16 AM 37.4 °F 34.9 °F 37.4 °F 100% 29.97 in 2.0 mi ENE 3.5 mph - N/A   Clear
5:32 AM 37.4 °F 33.8 °F 37.4 °F 100% 29.97 in 3.0 mi ENE 4.6 mph - N/A   Clear
5:50 AM 37.4 °F 33.8 °F 35.6 °F 93% 29.97 in 2.5 mi ENE 4.6 mph - N/A   Clear
5:53 AM 37.0 °F 33.3 °F 36.0 °F 96% 29.98 in 2.5 mi ENE 4.6 mph - N/A   Clear
6:08 AM 37.4 °F 31.4 °F 35.6 °F 93% 29.96 in 3.0 mi ENE 8.1 mph - N/A   Clear
6:53 AM 37.9 °F 33.5 °F 37.0 °F 97% 29.95 in 3.0 mi ENE 5.8 mph - N/A   Clear
7:53 AM 37.9 °F 35.5 °F 37.9 °F 100% 29.97 in 2.5 mi North 3.5 mph - N/A   Mostly Cloudy
8:27 AM 37.4 °F - 37.4 °F 100% 29.94 in 1.8 mi Calm Calm - N/A   Mostly Cloudy
8:42 AM 37.4 °F - 37.4 °F 100% 29.96 in 2.0 mi Calm Calm - 0.00 in Rain Light Rain
8:48 AM 37.4 °F 33.8 °F 37.4 °F 100% 29.94 in 1.2 mi East 4.6 mph - 0.00 in Rain Light Rain
8:53 AM 37.0 °F - 37.0 °F 100% 29.96 in 1.2 mi Calm Calm - 0.00 in Rain Light Rain
9:04 AM 39.2 °F 34.2 °F 39.2 °F 100% 29.92 in 1.8 mi ENE 6.9 mph - 0.01 in Rain Light Rain
9:21 AM 39.2 °F 35.0 °F 37.4 °F 93% 29.91 in 3.0 mi East 5.8 mph - 0.01 in   Overcast
9:32 AM 37.4 °F 33.8 °F 37.4 °F 100% 29.91 in 2.0 mi East 4.6 mph - 0.01 in   Overcast
9:53 AM 37.9 °F 31.5 °F 37.0 °F 97% 29.91 in 2.0 mi ENE 9.2 mph - 0.03 in Rain Light Rain
10:10 AM 39.2 °F 35.0 °F 39.2 °F 100% 29.90 in 1.2 mi NE 5.8 mph - 0.06 in Rain Heavy Rain
10:24 AM 37.4 °F 32.8 °F 37.4 °F 100% 29.88 in 0.8 mi NE 5.8 mph - 0.13 in Rain Rain
10:39 AM 39.2 °F 34.2 °F 37.4 °F 93% 29.87 in 1.0 mi ENE 6.9 mph - 0.16 in Rain Rain
10:51 AM 39.2 °F 35.0 °F 37.4 °F 93% 29.85 in 1.5 mi East 5.8 mph - 0.18 in Rain Light Rain
10:53 AM 39.0 °F 35.7 °F 37.9 °F 96% 29.86 in 1.5 mi East 4.6 mph - 0.18 in Rain Light Rain
11:00 AM 37.4 °F 32.1 °F 37.4 °F 100% 29.84 in 1.0 mi ENE 6.9 mph - 0.00 in Rain Light Rain
11:09 AM 37.4 °F 32.1 °F 37.4 °F 100% 29.83 in 0.8 mi NE 6.9 mph - 0.00 in Rain Light Rain
11:27 AM 37.4 °F 31.4 °F 37.4 °F 100% 29.81 in 0.8 mi ENE 8.1 mph - N/A   Mostly Cloudy
11:38 AM 39.2 °F 33.6 °F 39.2 °F 100% 29.79 in 1.5 mi ENE 8.1 mph - 0.00 in   Scattered Clouds
11:53 AM 39.9 °F 36.7 °F 39.9 °F 100% 29.79 in 1.2 mi NE 4.6 mph - 0.00 in   Clear
12:13 PM 41.0 °F 38.0 °F 41.0 °F 100% 29.76 in 2.0 mi NNE 4.6 mph - N/A   Partly Cloudy
12:23 PM 41.0 °F - 41.0 °F 100% 29.76 in 1.8 mi Calm Calm - N/A   Partly Cloudy
12:33 PM 39.2 °F 35.0 °F 39.2 °F 100% 29.75 in 2.5 mi NNE 5.8 mph - N/A   Scattered Clouds
12:40 PM 39.2 °F 35.0 °F 37.4 °F 93% 29.75 in 3.0 mi NNE 5.8 mph - N/A   Mostly Cloudy
12:53 PM 42.1 °F - 39.9 °F 92% 29.77 in 5.0 mi Calm Calm - N/A   Overcast
1:53 PM 39.9 °F 37.8 °F 39.9 °F 100% 29.76 in 2.0 mi East 3.5 mph - N/A   Overcast
2:01 PM 39.2 °F - 39.2 °F 100% 29.75 in 1.2 mi Calm Calm - N/A   Overcast
2:08 PM 39.2 °F - 39.2 °F 100% 29.75 in 0.5 mi Calm Calm - N/A Fog Fog
2:14 PM 41.0 °F - 39.2 °F 93% 29.75 in 1.5 mi Calm Calm - N/A   Mostly Cloudy
2:18 PM 42.8 °F - 41.0 °F 93% 29.75 in 3.0 mi Calm Calm - N/A   Mostly Cloudy
2:53 PM 53.1 °F - 48.9 °F 86% 29.76 in 10.0 mi SSW 12.7 mph - N/A   Mostly Cloudy
3:53 PM 51.1 °F - 46.0 °F 83% 29.77 in 10.0 mi SSW 12.7 mph - N/A   Overcast
4:53 PM 51.1 °F - 46.0 °F 83% 29.80 in 10.0 mi SSW 11.5 mph - N/A   Overcast
5:23 PM 51.8 °F - 46.4 °F 82% 29.80 in 10.0 mi SW 11.5 mph - N/A   Overcast
5:53 PM 51.1 °F - 46.0 °F 83% 29.83 in 10.0 mi SW 9.2 mph - N/A   Overcast
6:53 PM 51.1 °F - 46.9 °F 86% 29.84 in 10.0 mi SW 9.2 mph - N/A   Overcast
7:53 PM 51.1 °F - 46.9 °F 86% 29.85 in 10.0 mi WSW 6.9 mph - N/A   Overcast
8:53 PM 48.9 °F - 46.0 °F 90% 29.84 in 10.0 mi WSW 5.8 mph - N/A   Overcast
9:53 PM 42.1 °F 40.2 °F 42.1 °F 100% 29.84 in 1.0 mi West 3.5 mph - N/A   Overcast
10:00 PM 41.0 °F - 41.0 °F 100% 29.83 in 0.5 mi Calm Calm - N/A Fog Fog
10:53 PM 45.0 °F - 42.1 °F 90% 29.84 in 0.5 mi Calm Calm - 0.00 in Fog , Rain Light Rain
11:53 PM 39.9 °F - 39.9 °F 100% 29.82 in 0.2 mi Calm Calm - 0.00 in Fog Fog